This is the latest recevied weather packets stored in our database for station/object N1YZ. If no packets are shown the sender has not sent any weather packets the latest 10 day(s).
| Time | Temp. | Humidity | Pressure | Rain* | Wind** | Luminosity | Snow |
|---|---|---|---|---|---|---|---|
| 1788042408 | 30.56° C | 72% | 1036.5 hPa | 0 mm | - | 89 W/m² | - |
| 1788042103 | 30° C | 72% | 1036.5 hPa | 0 mm | - | 100 W/m² | - |
| 1788041798 | 30° C | 71% | 1036.5 hPa | 0 mm | - | 65 W/m² | - |
| 1788041493 | 30° C | 71% | 1036.2 hPa | 0 mm | - | 41 W/m² | - |
| 1788041188 | 30° C | 71% | 1036.3 hPa | 0 mm | - | 33 W/m² | - |
| 1788040887 | 30° C | 72% | 1036.5 hPa | 0 mm | - | 28 W/m² | - |
| 1788040586 | 30° C | 73% | 1036.3 hPa | 0 mm | - | 28 W/m² | - |
| 1788040282 | 30° C | 72% | 1036.4 hPa | 0 mm | - | 36 W/m² | - |
| 1788039981 | 30.56° C | 71% | 1036.6 hPa | 0 mm | - | 45 W/m² | - |
| 1788039676 | 30.56° C | 72% | 1036.4 hPa | 0 mm | - | 49 W/m² | - |
| 1788039371 | 30.56° C | 71% | 1036.4 hPa | 0 mm | - | 37 W/m² | - |
| 1788039067 | 30.56° C | 72% | 1036.5 hPa | 0 mm | - | 62 W/m² | - |
| 1788038762 | 30.56° C | 72% | 1036.3 hPa | 0 mm | - | 72 W/m² | - |
| 1788038456 | 30.56° C | 73% | 1036.4 hPa | 0 mm | - | 90 W/m² | - |
| 1788038156 | 30.56° C | 70% | 1036.5 hPa | 0 mm | - | 88 W/m² | - |
| 1788037850 | 31.11° C | 69% | 1036.6 hPa | 0 mm | - | 102 W/m² | - |
| 1788037545 | 31.11° C | 69% | 1036.6 hPa | 0 mm | - | 75 W/m² | - |
| 1788037240 | 31.11° C | 70% | 1036.6 hPa | 0 mm | - | 63 W/m² | - |
| 1788036939 | 31.11° C | 67% | 1036.8 hPa | 0 mm | - | 103 W/m² | - |
| 1788036637 | 31.11° C | 71% | 1036.7 hPa | 0 mm | - | 86 W/m² | - |
| 1788036332 | 30.56° C | 70% | 1036.5 hPa | 0 mm | - | 102 W/m² | - |
| 1788036032 | 30.56° C | 70% | 1036.7 hPa | 0 mm | - | 111 W/m² | - |
| 1788035726 | 31.67° C | 68% | 1036.8 hPa | 0 mm | - | 95 W/m² | - |
| 1788035421 | 31.67° C | 66% | 1036.9 hPa | 0 mm | - | 80 W/m² | - |
| 1788035117 | 31.67° C | 66% | 1036.7 hPa | 0 mm | - | 108 W/m² | - |
* Rain latest hour (hover to see other rain measurements)
** Current wind speed in m/s (hover to see current wind gust speed)